TimePDT,TemperatureF,Dew PointF,Humidity,Sea Level PressureIn,VisibilityMPH,Wind Direction,Wind SpeedMPH,Gust SpeedMPH,PrecipitationIn,Events,Conditions,WindDirDegrees,DateUTC
12:54 AM,59.0,52.0,78,29.90,10.0,SSW,9.2,-,N/A,,Clear,210,2013-06-22 07:54:00
1:54 AM,57.0,48.9,74,29.89,10.0,Calm,Calm,-,N/A,,Clear,0,2013-06-22 08:54:00
2:54 AM,54.0,48.0,80,29.88,10.0,Calm,Calm,-,N/A,,Clear,0,2013-06-22 09:54:00
3:54 AM,54.0,51.1,90,29.88,10.0,Calm,Calm,-,N/A,,Clear,0,2013-06-22 10:54:00
4:54 AM,51.1,48.9,92,29.88,10.0,Calm,Calm,-,N/A,,Clear,0,2013-06-22 11:54:00
5:54 AM,48.9,46.9,93,29.88,8.0,East,3.5,-,N/A,,Clear,100,2013-06-22 12:54:00
6:54 AM,55.9,52.0,87,29.89,10.0,Calm,Calm,-,N/A,,Clear,0,2013-06-22 13:54:00
7:54 AM,61.0,52.0,72,29.91,10.0,SW,4.6,-,N/A,,Clear,230,2013-06-22 14:54:00
8:54 AM,64.9,52.0,63,29.91,10.0,WSW,8.1,-,N/A,,Clear,240,2013-06-22 15:54:00
9:54 AM,69.1,52.0,54,29.91,10.0,SSW,5.8,-,N/A,,Clear,210,2013-06-22 16:54:00
10:54 AM,73.0,51.1,46,29.91,10.0,SW,5.8,-,N/A,,Clear,220,2013-06-22 17:54:00
11:54 AM,75.9,51.1,42,29.89,10.0,Variable,6.9,-,N/A,,Clear,0,2013-06-22 18:54:00
12:54 PM,80.1,50.0,35,29.87,10.0,South,10.4,-,N/A,,Clear,190,2013-06-22 19:54:00
1:54 PM,84.0,50.0,31,29.85,10.0,South,15.0,-,N/A,,Clear,190,2013-06-22 20:54:00
2:54 PM,84.9,53.1,33,29.84,10.0,SSW,16.1,-,N/A,,Clear,210,2013-06-22 21:54:00
3:54 PM,82.9,52.0,34,29.83,10.0,SSW,18.4,-,N/A,,Clear,210,2013-06-22 22:54:00
4:54 PM,81.0,54.0,39,29.81,10.0,South,15.0,-,N/A,,Clear,190,2013-06-22 23:54:00
5:54 PM,82.0,48.0,30,29.80,10.0,SW,13.8,-,N/A,,Clear,220,2013-06-23 00:54:00
6:54 PM,78.1,50.0,37,29.79,10.0,SW,12.7,-,N/A,,Clear,220,2013-06-23 01:54:00
7:54 PM,73.9,51.1,45,29.79,10.0,SSW,9.2,-,N/A,,Clear,210,2013-06-23 02:54:00
8:54 PM,69.1,53.1,57,29.79,10.0,SW,15.0,-,N/A,,Clear,230,2013-06-23 03:54:00
9:54 PM,66.0,53.1,63,29.81,10.0,SW,15.0,-,N/A,,Clear,230,2013-06-23 04:54:00
10:54 PM,63.0,54.0,72,29.81,10.0,WSW,13.8,-,N/A,,Clear,240,2013-06-23 05:54:00
11:54 PM,62.1,54.0,75,29.81,10.0,WSW,16.1,-,N/A,,Clear,240,2013-06-23 06:54:00